This is the latest recevied weather packets stored in our database for station/object KC5EZZ-2. If no packets are shown the sender has not sent any weather packets the latest 1 day(s).
| Time | Temp. | Humidity | Pressure | Rain* | Wind** | Luminosity | Snow |
|---|---|---|---|---|---|---|---|
| 1778099842 | 20.56° C | - | - | 0 mm | 1.79 m/s, 58° | - | - |
| 1778098940 | 20.56° C | - | - | 0 mm | 3.13 m/s, 82° | - | - |
| 1778098039 | 20° C | - | - | 0 mm | 4.02 m/s, 37° | - | - |
| 1778097437 | 20° C | - | - | 0 mm | 3.13 m/s, 39° | - | - |
| 1778094732 | 17.22° C | - | - | 0 mm | 3.13 m/s, 68° | - | - |
| 1778094432 | 17.22° C | - | - | 0 mm | 3.13 m/s, 80° | - | - |
| 1778094130 | 17.22° C | - | - | 0 mm | 3.13 m/s, 30° | - | - |
| 1778092928 | 16.67° C | - | - | 0 mm | 4.02 m/s, 60° | - | - |
| 1778089924 | 17.22° C | - | - | 0 mm | 3.13 m/s, 39° | - | - |
| 1778089322 | 17.78° C | - | - | 0 mm | 3.58 m/s, 4° | - | - |
| 1778087220 | 17.22° C | - | - | 0 mm | 3.58 m/s, 339° | - | - |
| 1778086618 | 16.67° C | - | - | 0 mm | 4.02 m/s, 352° | - | - |
| 1778086016 | 16.67° C | - | - | 0 mm | 1.79 m/s, 353° | - | - |
| 1778082486 | 13.89° C | - | - | 0 mm | 2.68 m/s, 353° | - | - |
| 1778078205 | 12.78° C | - | - | 0 mm | 4.02 m/s, 328° | - | - |
| 1778078044 | 12.78° C | - | - | 0 mm | 4.92 m/s, 335° | - | - |
| 1778077603 | 12.78° C | - | - | 0 mm | 4.02 m/s, 322° | - | - |
| 1778077001 | 12.22° C | - | - | 0 mm | 3.13 m/s, 314° | - | - |
| 1778076402 | 12.22° C | - | - | 0 mm | 4.02 m/s, 25° | - | - |
| 1778075800 | 11.67° C | - | - | 0 mm | 4.47 m/s, 350° | - | - |
| 1778075198 | 11.67° C | - | - | 0 mm | 4.47 m/s, 345° | - | - |
| 1778074599 | 11.67° C | - | - | 0 mm | 4.47 m/s, 354° | - | - |
| 1778073998 | 11.67° C | - | - | 0 mm | 4.02 m/s, 349° | - | - |
| 1778073395 | 11.67° C | - | - | 0 mm | 3.58 m/s, 359° | - | - |
| 1778072796 | 11.11° C | - | - | 0 mm | 5.36 m/s, 38° | - | - |
* Rain latest hour (hover to see other rain measurements)
** Current wind speed in m/s (hover to see current wind gust speed)